Temp
-8 -8 -9 -8 -8 -9 -10 -12 -13 -16 -18 -18 -18 -18 -18 -19 -19 -21 -20 -21 -20 -20 -19 -18 -19 -18 -17 -17 -16 -17 -15 -14 -13 -14 -14 -14 -14 -13 -14 -14 -12 -11 -11 -11 -10
-9 -9 -9 -9 -8 -9 -10 -12 -14 -17 -18 -19 -18 -19 -19 -19 -20 -21 -21 -21 -21 -20 -20 -18 -19 -19 -17 -17 -16 -16 -15 -14 -14 -15 -15 -14 -14 -14 -14 -14 -13 -13 -11 -12 -12
-9 -9 -9 -9 -8 -9 -11 -13 -15 -18 -19 -19 -19 -19 -19 -20 -21 -21 -21 -21 -21 -20 -20 -19 -20 -19 -17 -17 -17 -16 -14 -14 -14 -16 -14 -14 -14 -14 -15 -14 -13 -12 -12 -12 -12
-9 -9 -9 -8 -9 -10 -11 -13 -16 -18 -19 -19 -19 -19 -20 -21 -21 -22 -21 -22 -21 -21 -20 -19 -19 -18 -18 -17 -16 -16 -16 -16 -16 -15 -14 -14 -14 -15 -14 -14 -13 -13 -13 -13 -12
-9 -9 -9 -8 -9 -11 -11 -14 -17 -19 -19 -19 -19 -20 -20 -22 -23 -23 -22 -22 -22 -21 -19 -19 -19 -18 -18 -16 -17 -16 -16 -16 -16 -16 -14 -14 -14 -14 -14 -13 -14 -14 -13 -13 -13
-9 -9 -9 -9 -9 -11 -11 -14 -18 -19 -19 -19 -20 -20 -21 -23 -24 -24 -23 -22 -22 -21 -20 -19 -19 -18 -18 -17 -17 -17 -17 -16 -16 -15 -14 -15 -14 -15 -14 -14 -14 -14 -14 -13 -13
-9 -9 -9 -9 -10 -11 -12 -15 -19 -19 -19 -20 -20 -21 -22 -24 -25 -25 -25 -23 -22 -21 -20 -19 -19 -19 -19 -18 -17 -17 -16 -16 -16 -15 -16 -15 -15 -14 -14 -14 -14 -14 -14 -13 -13
-10 -9 -9 -9 -10 -11 -12 -15 -19 -19 -20 -20 -21 -21 -23 -25 -25 -25 -25 -24 -22 -21 -21 -20 -19 -19 -18 -18 -18 -17 -16 -16 -16 -16 -15 -14 -15 -15 -14 -14 -14 -14 -13 -13 -13
-10 -10 -9 -9 -10 -11 -12 -16 -19 -20 -20 -20 -21 -22 -24 -25 -25 -25 -25 -24 -22 -21 -20 -19 -19 -19 -18 -18 -18 -17 -17 -16 -15 -15 -16 -15 -14 -15 -14 -14 -14 -14 -14 -14 -14
-10 -10 -9 -9 -10 -11 -13 -16 -19 -20 -20 -21 -22 -23 -25 -24 -25 -25 -25 -24 -22 -21 -20 -19 -19 -19 -19 -18 -17 -17 -16 -16 -16 -16 -16 -15 -15 -14 -14 -14 -15 -14 -14 -13 -13
-10 -9 -9 -10 -10 -11 -13 -17 -19 -20 -20 -21 -22 -24 -24 -24 -25 -25 -25 -23 -22 -20 -20 -20 -19 -19 -18 -18 -18 -17 -17 -17 -17 -16 -16 -15 -16 -15 -15 -14 -14 -15 -13 -13 -13
-10 -9 -9 -10 -10 -11 -13 -17 -20 -20 -20 -21 -23 -24 -24 -24 -25 -25 -24 -23 -22 -20 -20 -20 -19 -19 -18 -18 -19 -18 -17 -17 -17 -17 -16 -16 -16 -15 -14 -14 -14 -15 -15 -14 -14
-10 -9 -9 -9 -10 -11 -14 -17 -20 -20 -20 -22 -24 -24 -24 -24 -24 -24 -23 -22 -22 -20 -20 -20 -19 -19 -19 -19 -19 -19 -18 -18 -17 -17 -17 -17 -16 -15 -15 -14 -14 -14 -14 -14 -14
-10 -9 -9 -9 -10 -11 -14 -18 -19 -20 -20 -22 -24 -24 -23 -24 -24 -23 -22 -21 -21 -20 -20 -19 -19 -19 -19 -19 -19 -19 -19 -18 -17 -17 -17 -17 -16 -16 -15 -15 -15 -15 -14 -15 -14
-10 -9 -9 -9 -10 -12 -14 -18 -19 -20 -21 -22 -24 -24 -23 -23 -23 -22 -22 -21 -21 -20 -19 -19 -19 -19 -19 -19 -19 -20 -19 -18 -17 -18 -18 -17 -16 -16 -15 -16 -16 -16 -15 -15 -15
-10 -9 -9 -9 -10 -12 -14 -18 -19 -19 -20 -22 -22 -23 -22 -23 -22 -22 -21 -21 -21 -20 -20 -20 -19 -19 -19 -19 -18 -18 -19 -18 -18 -18 -18 -17 -16 -16 -15 -15 -15 -16 -16 -15 -15
-10 -9 -9 -9 -10 -11 -14 -18 -19 -19 -20 -21 -22 -23 -22 -22 -22 -22 -21 -21 -20 -20 -20 -19 -19 -19 -19 -19 -20 -19 -19 -19 -19 -18 -17 -17 -16 -16 -15 -15 -15 -16 -16 -16 -15
-10 -9 -9 -9 -10 -11 -13 -18 -19 -20 -20 -21 -21 -23 -22 -21 -21 -22 -20 -20 -20 -19 -20 -19 -19 -19 -20 -19 -19 -19 -19 -19 -18 -17 -17 -17 -16 -16 -16 -17 -16 -16 -16 -15 -15
-10 -9 -9 -10 -10 -11 -13 -17 -19 -19 -20 -20 -21 -21 -21 -21 -21 -21 -21 -20 -20 -19 -19 -19 -19 -19 -19 -19 -19 -19 -19 -18 -18 -18 -17 -17 -17 -17 -17 -17 -16 -16 -16 -16 -16
-10 -9 -9 -10 -10 -11 -13 -17 -19 -20 -19 -20 -20 -21 -21 -21 -21 -20 -20 -20 -20 -19 -19 -19 -19 -19 -20 -19 -19 -19 -19 -19 -18 -19 -18 -18 -18 -17 -17 -17 -16 -16 -16 -16 -16
-10 -9 -9 -9 -10 -11 -12 -15 -18 -19 -20 -20 -20 -21 -21 -21 -20 -20 -20 -19 -19 -19 -19 -19 -19 -19 -19 -19 -19 -19 -19 -19 -19 -19 -19 -19 -18 -17 -17 -17 -17 -17 -17 -17 -17
-10 -10 -9 -9 -10 -11 -12 -14 -19 -19 -20 -20 -20 -20 -20 -21 -21 -20 -20 -19 -19 -20 -19 -19 -19 -19 -19 -19 -19 -18 -19 -19 -19 -19 -19 -19 -18 -17 -17 -17 -17 -17 -17 -17 -17
-10 -10 -10 -9 -10 -11 -12 -14 -16 -19 -20 -20 -20 -20 -20 -20 -20 -20 -20 -19 -20 -20 -19 -19 -19 -19 -19 -18 -18 -18 -19 -19 -19 -18 -18 -18 -18 -18 -18 -18 -18 -18 -17 -16 -16
-11 -10 -10 -9 -10 -11 -12 -13 -15 -19 -19 -20 -20 -20 -20 -20 -20 -20 -20 -20 -19 -19 -19 -19 -19 -19 -19 -19 -19 -19 -19 -19 -19 -18 -19 -19 -19 -19 -19 -18 -17 -16 -16 -16 -17
-11 -10 -10 -10 -10 -11 -12 -12 -14 -17 -19 -19 -19 -20 -20 -19 -20 -20 -20 -20 -19 -20 -19 -19 -19 -19 -19 -19 -19 -19 -19 -19 -18 -19 -18 -19 -18 -19 -18 -17 -17 -17 -17 -17 -17
-11 -10 -11 -10 -10 -11 -11 -12 -13 -15 -19 -19 -19 -19 -19 -20 -19 -19 -19 -20 -20 -19 -19 -19 -19 -19 -19 -19 -19 -19 -19 -19 -19 -19 -18 -19 -18 -18 -18 -18 -18 -18 -17 -17 -17
-11 -11 -11 -11 -10 -11 -11 -11 -13 -14 -17 -19 -19 -19 -20 -20 -20 -19 -19 -19 -19 -19 -19 -19 -20 -19 -19 -19 -19 -19 -19 -19 -19 -19 -18 -18 -18 -18 -18 -18 -18 -18 -17 -17 -17
Height
5749 5740 5730 5721 5710 5695 5682 5668 5656 5648 5643 5638 5632 5626 5619 5611 5602 5597 5602 5609 5615 5627 5640 5651 5662 5674 5685 5700 5712 5719 5725 5736 5749 5756 5761 5770 5778 5788 5791 5798 5809 5812 5817 5823 5824
5743 5734 5724 5715 5703 5689 5676 5661 5649 5640 5635 5630 5625 5617 5611 5603 5597 5597 5601 5605 5611 5623 5633 5643 5655 5667 5682 5692 5702 5709 5720 5737 5747 5750 5749 5769 5773 5781 5786 5794 5799 5803 5811 5816 5816
5738 5729 5720 5708 5695 5682 5669 5653 5641 5633 5629 5624 5618 5611 5602 5596 5593 5594 5595 5601 5608 5616 5627 5639 5649 5662 5676 5687 5697 5705 5716 5731 5735 5738 5750 5762 5767 5777 5782 5783 5790 5803 5807 5812 5816
5732 5724 5715 5702 5687 5673 5659 5644 5633 5627 5623 5618 5611 5603 5594 5587 5589 5587 5590 5596 5603 5612 5625 5635 5643 5654 5666 5677 5689 5703 5714 5719 5726 5735 5749 5757 5763 5765 5769 5777 5794 5798 5804 5807 5811
5727 5720 5710 5696 5682 5668 5653 5639 5628 5621 5617 5610 5603 5596 5588 5580 5578 5579 5582 5589 5598 5607 5620 5629 5638 5652 5664 5676 5684 5693 5706 5715 5726 5732 5741 5747 5753 5761 5768 5778 5785 5793 5798 5803 5806
5723 5715 5704 5690 5676 5661 5648 5634 5623 5617 5611 5604 5597 5589 5580 5575 5572 5572 5576 5583 5593 5603 5613 5622 5638 5649 5661 5670 5678 5691 5701 5710 5719 5726 5730 5740 5746 5755 5764 5771 5778 5785 5793 5800 5803
5719 5711 5699 5685 5672 5656 5643 5628 5618 5612 5606 5598 5590 5582 5573 5569 5566 5568 5570 5578 5588 5598 5610 5618 5630 5639 5651 5663 5674 5685 5695 5704 5712 5716 5726 5732 5742 5755 5755 5760 5769 5778 5787 5795 5798
5714 5706 5694 5681 5667 5651 5638 5624 5613 5608 5601 5593 5585 5576 5568 5563 5561 5562 5567 5574 5584 5595 5605 5615 5628 5639 5652 5661 5667 5676 5687 5692 5707 5717 5724 5733 5742 5744 5748 5759 5766 5775 5781 5787 5795
5711 5702 5690 5676 5663 5647 5634 5620 5609 5604 5597 5589 5581 5571 5565 5562 5560 5560 5563 5572 5583 5596 5607 5616 5628 5638 5648 5659 5667 5673 5685 5694 5703 5713 5709 5725 5734 5738 5744 5755 5761 5766 5773 5780 5786
5708 5698 5686 5673 5659 5643 5630 5617 5607 5601 5594 5585 5577 5570 5564 5562 5560 5559 5563 5572 5584 5593 5605 5614 5621 5633 5644 5653 5662 5673 5684 5691 5699 5710 5713 5721 5729 5733 5738 5746 5754 5758 5763 5771 5778
5705 5696 5683 5670 5655 5640 5626 5614 5606 5599 5590 5582 5575 5567 5564 5563 5559 5558 5563 5574 5584 5594 5605 5615 5623 5635 5648 5659 5668 5677 5682 5689 5698 5701 5708 5718 5722 5728 5736 5742 5750 5755 5760 5766 5772
5700 5692 5681 5668 5652 5638 5624 5612 5603 5598 5588 5581 5573 5569 5566 5564 5561 5561 5566 5577 5587 5598 5608 5617 5627 5639 5648 5654 5662 5668 5676 5688 5694 5701 5704 5711 5719 5726 5734 5740 5743 5750 5754 5759 5765
5697 5690 5678 5665 5650 5636 5622 5611 5602 5595 5589 5580 5574 5570 5569 5567 5567 5568 5573 5579 5590 5600 5610 5617 5626 5633 5642 5652 5659 5669 5675 5686 5692 5695 5702 5708 5717 5724 5728 5733 5736 5741 5746 5751 5757
5694 5687 5675 5663 5649 5634 5621 5610 5602 5595 5589 5583 5574 5573 5572 5571 5573 5577 5581 5588 5594 5602 5610 5617 5629 5637 5645 5653 5660 5668 5676 5682 5688 5694 5702 5707 5715 5720 5724 5730 5732 5734 5739 5743 5749
5691 5685 5672 5660 5649 5636 5620 5611 5603 5597 5591 5584 5576 5576 5575 5577 5580 5583 5586 5591 5600 5608 5615 5624 5631 5638 5646 5653 5658 5665 5672 5682 5685 5694 5699 5705 5712 5716 5720 5724 5728 5731 5735 5738 5742
5689 5682 5670 5660 5648 5634 5619 5612 5605 5600 5594 5586 5581 5580 5583 5584 5586 5589 5592 5597 5605 5609 5617 5627 5634 5638 5644 5650 5657 5664 5670 5676 5684 5690 5698 5703 5709 5712 5715 5721 5721 5725 5729 5732 5737
5686 5679 5668 5659 5649 5634 5621 5614 5608 5602 5597 5591 5588 5587 5590 5593 5593 5595 5600 5603 5609 5617 5622 5629 5634 5642 5647 5652 5658 5664 5670 5677 5683 5689 5696 5701 5706 5709 5711 5715 5719 5720 5724 5728 5732
5683 5677 5667 5659 5649 5635 5622 5615 5609 5604 5599 5595 5594 5595 5597 5597 5601 5603 5607 5612 5616 5621 5625 5632 5639 5644 5649 5653 5659 5663 5671 5676 5681 5687 5694 5698 5702 5706 5708 5709 5712 5716 5718 5721 5725
5680 5674 5666 5659 5649 5636 5625 5616 5610 5608 5604 5600 5601 5602 5603 5604 5605 5609 5613 5616 5621 5626 5631 5636 5642 5645 5650 5655 5659 5662 5667 5673 5679 5684 5689 5694 5697 5700 5703 5705 5707 5710 5714 5716 5718
5677 5672 5666 5659 5649 5638 5626 5616 5613 5610 5607 5604 5606 5607 5606 5608 5611 5613 5618 5622 5626 5630 5634 5638 5641 5646 5650 5655 5660 5663 5667 5671 5675 5681 5685 5688 5692 5696 5699 5702 5704 5706 5708 5709 5712
5674 5669 5665 5658 5649 5639 5629 5619 5614 5613 5612 5610 5610 5612 5611 5613 5615 5617 5619 5624 5628 5632 5637 5641 5644 5648 5651 5655 5659 5662 5665 5669 5674 5679 5683 5686 5688 5692 5696 5698 5700 5702 5702 5704 5707
5670 5668 5664 5658 5650 5640 5631 5621 5614 5615 5614 5613 5613 5616 5616 5617 5618 5619 5622 5626 5629 5632 5637 5642 5645 5648 5652 5654 5657 5660 5663 5667 5670 5676 5679 5682 5685 5688 5691 5693 5695 5696 5697 5699 5701
5666 5664 5662 5657 5649 5641 5633 5624 5618 5616 5616 5617 5618 5618 5619 5620 5622 5623 5625 5628 5632 5635 5638 5642 5644 5646 5650 5654 5656 5659 5662 5665 5668 5672 5675 5679 5683 5683 5686 5688 5690 5691 5693 5694 5696
5663 5661 5661 5656 5649 5642 5635 5625 5619 5616 5618 5619 5620 5620 5621 5622 5624 5625 5627 5630 5632 5635 5638 5640 5643 5646 5649 5652 5655 5657 5660 5663 5665 5667 5672 5676 5678 5680 5681 5682 5683 5685 5688 5689 5691
5658 5657 5658 5655 5650 5643 5637 5628 5622 5617 5618 5620 5621 5621 5621 5622 5625 5627 5628 5630 5633 5636 5638 5641 5643 5646 5648 5650 5652 5654 5656 5658 5660 5665 5667 5671 5673 5673 5674 5676 5678 5679 5681 5681 5682
5654 5654 5654 5653 5650 5644 5638 5631 5624 5620 5617 5619 5621 5622 5622 5623 5625 5628 5630 5631 5632 5635 5638 5640 5643 5646 5647 5648 5651 5652 5655 5656 5659 5660 5661 5663 5665 5667 5669 5671 5672 5672 5672 5673 5674
5648 5650 5651 5651 5649 5644 5638 5633 5627 5622 5618 5619 5620 5622 5623 5624 5625 5627 5629 5631 5634 5636 5638 5640 5641 5643 5646 5647 5649 5652 5653 5654 5655 5657 5658 5659 5660 5662 5664 5664 5663 5664 5665 5665 5664
Wind_Speed
50 48 51 54 63 71 75 65 55 42 34 32 36 41 45 47 41 20 30 27 36 55 60 60 59 60 62 60 49 55 62 64 60 58 56 55 53 50 55 50 47 49 45 43 42
49 48 50 55 63 70 76 65 55 40 33 33 37 42 45 47 33 40 28 30 34 51 59 57 62 58 62 59 61 58 54 59 57 58 61 53 55 53 53 54 50 53 51 46 43
47 49 49 55 64 71 76 66 51 37 32 33 37 43 46 43 29 41 31 29 27 48 55 56 61 61 58 61 55 58 55 46 58 59 58 55 54 51 49 53 60 53 52 48 43
46 48 48 56 66 73 78 64 47 35 32 33 37 42 46 41 20 23 44 28 28 47 43 53 60 63 61 62 59 50 60 49 55 56 54 53 53 55 56 57 48 55 53 51 48
44 45 49 57 66 73 77 65 43 34 32 34 39 42 44 36 18 28 49 35 34 49 40 59 58 58 58 58 57 60 56 48 50 47 53 53 55 55 53 54 54 55 54 53 52
43 44 49 59 68 73 76 64 39 32 32 36 38 43 41 30 12 29 34 36 38 53 39 52 47 54 56 58 57 52 50 58 55 51 48 45 54 54 53 50 56 47 59 52 53
44 43 49 60 68 73 76 59 37 33 34 38 39 41 37 16 14 15 29 32 39 57 45 45 51 56 56 52 55 52 46 49 59 42 60 53 37 41 53 50 54 56 52 59 53
44 44 50 60 67 72 75 57 36 32 35 38 38 39 24 15 12 17 27 30 43 60 34 38 52 54 51 54 42 55 61 40 47 48 53 66 51 47 53 53 46 49 51 50 59
43 42 50 60 66 71 73 51 34 32 36 37 37 32 17 2 6 15 24 32 40 51 34 41 51 51 52 49 51 52 46 49 37 62 27 51 46 51 52 48 46 47 53 55 53
39 40 50 58 66 71 70 48 34 32 36 35 36 26 9 6 13 7 25 31 44 56 39 46 40 49 45 46 51 49 51 55 50 52 56 46 54 43 39 43 46 46 45 48 53
38 39 49 58 64 70 67 41 33 33 36 35 33 19 5 9 9 6 30 36 47 38 35 37 47 48 47 28 44 52 49 38 43 22 45 51 48 46 45 44 49 45 45 44 43
36 37 47 56 62 69 66 41 29 30 35 34 28 13 4 10 2 15 36 41 52 42 36 36 37 33 41 36 45 47 42 40 39 26 36 51 50 45 42 40 41 50 48 46 42
34 35 46 54 61 67 60 39 28 32 33 33 25 7 7 7 4 21 35 37 48 35 29 28 44 41 41 39 41 36 42 32 32 26 27 38 46 41 41 43 44 45 44 51 48
32 33 42 50 59 67 55 36 27 32 33 32 19 5 6 8 9 27 28 37 28 31 28 29 42 42 37 37 39 35 35 47 37 26 21 25 28 42 27 34 37 41 46 44 49
30 30 40 47 56 65 57 34 25 30 30 30 14 7 6 9 22 11 34 31 35 39 34 35 34 27 32 40 37 32 35 24 36 36 29 20 21 23 30 41 29 27 35 37 45
28 28 37 45 54 62 54 31 25 29 28 25 11 10 15 15 17 23 27 28 33 31 27 31 29 24 23 30 35 35 34 44 38 34 32 27 24 21 23 20 22 27 30 34 38
25 25 34 43 51 58 54 29 22 26 29 19 10 10 22 19 15 15 29 27 27 31 29 32 32 24 21 19 26 32 32 35 31 33 33 29 28 29 28 24 22 22 24 27 36
20 22 31 39 46 55 53 30 20 23 25 12 9 21 20 9 15 17 24 32 30 32 26 22 26 21 21 19 18 26 32 33 38 37 30 26 26 25 24 20 22 25 27 28 33
16 19 29 34 42 53 49 28 22 20 21 12 18 24 17 14 14 9 19 28 30 27 24 28 24 16 19 20 17 19 26 29 33 37 35 28 27 27 19 16 16 21 25 28 32
11 16 25 31 39 49 48 32 17 16 19 12 18 14 14 17 14 12 17 25 36 27 26 25 28 21 20 22 18 16 19 23 27 28 27 25 18 19 18 17 16 20 23 25 28
7 13 22 29 35 46 45 32 15 11 16 9 20 13 17 16 19 17 18 21 26 31 23 23 19 20 21 23 21 20 17 21 26 27 20 15 21 20 18 16 19 20 22 23 24
4 10 20 23 31 43 43 34 18 8 11 6 14 15 12 12 12 14 22 20 21 26 32 25 18 23 23 18 20 21 20 20 22 24 22 22 21 18 15 15 17 18 20 24 27
2 7 14 22 27 39 40 36 22 5 5 9 11 16 11 10 8 19 19 20 20 20 22 22 19 23 20 16 18 17 16 18 18 22 24 24 23 23 19 19 20 21 24 28 26
3 5 11 20 22 34 38 36 28 7 0 2 3 8 17 13 11 15 16 15 14 14 14 15 15 16 15 13 13 13 16 18 21 22 19 22 23 21 20 23 28 30 30 30 27
5 4 7 17 20 27 36 35 33 12 4 3 2 4 6 15 18 16 16 15 14 13 13 14 15 13 12 13 15 16 18 21 23 18 24 19 22 22 24 25 26 25 25 28 29
7 3 4 8 18 22 30 33 33 23 5 6 4 3 4 7 18 24 18 17 17 13 12 12 15 14 11 12 12 14 16 18 18 19 22 21 22 24 24 22 23 25 28 30 31
9 5 2 4 15 19 25 27 31 25 11 8 7 4 5 5 9 21 27 22 20 15 14 14 14 14 12 14 15 18 17 18 19 20 23 25 27 25 26 27 30 34 34 34 34
Wind_Direction
321 323 330 335 337 333 338 344 338 322 302 302 313 317 323 328 332 217 193 199 212 206 205 205 204 206 197 201 203 203 212 212 210 211 213 217 225 225 223 221 222 225 222 220 211
320 323 331 336 335 332 338 344 338 322 310 304 313 318 324 330 335 185 187 198 208 204 206 206 199 206 201 198 201 205 212 214 213 215 216 216 222 230 227 219 222 220 221 223 232
320 324 333 338 332 333 339 345 337 322 321 316 317 322 326 329 324 199 196 188 204 204 205 209 197 200 203 197 198 204 200 209 215 218 219 216 222 230 232 226 216 220 223 227 229
319 326 335 336 333 335 342 347 337 326 324 323 323 324 326 324 315 211 205 194 203 197 200 207 197 202 198 202 201 191 202 209 209 214 219 221 222 223 225 234 219 220 223 227 227
321 328 336 334 333 336 343 346 337 329 327 327 327 327 325 318 309 212 210 218 198 192 201 206 202 199 204 202 204 199 198 203 213 208 224 223 224 224 224 234 232 225 223 225 227
323 332 336 333 332 340 344 345 335 331 329 329 331 329 324 317 272 212 221 212 201 187 199 201 200 197 200 205 203 200 201 203 208 207 209 222 227 221 221 227 231 228 223 226 227
325 333 335 332 333 341 344 345 336 334 332 333 332 331 326 306 274 230 216 199 194 186 195 200 203 196 194 200 202 197 196 211 207 211 210 214 211 218 224 224 223 228 229 225 228
325 333 336 333 335 342 345 344 337 334 334 335 334 333 325 305 279 227 208 198 186 189 192 188 195 195 202 204 206 202 197 198 209 219 228 224 234 227 231 224 227 225 229 232 230
324 334 336 334 336 342 345 343 338 337 338 336 336 336 332 313 328 229 195 194 184 182 183 187 201 204 201 206 209 203 196 204 209 203 210 213 221 227 231 227 220 224 225 231 235
329 336 336 335 339 344 346 343 339 339 339 339 340 341 328 311 313 238 189 183 182 177 182 177 180 196 200 207 208 205 194 204 211 209 222 221 218 230 238 240 229 225 227 228 231
333 336 338 334 341 345 347 344 343 343 344 344 342 353 4 344 325 201 170 179 173 175 175 181 193 200 209 206 198 202 209 200 198 211 217 222 224 230 229 239 236 227 229 224 227
333 334 339 337 343 344 346 345 342 349 346 346 349 358 351 351 107 164 165 165 170 173 156 178 182 180 199 206 201 209 206 203 203 214 214 217 219 224 229 236 244 243 237 225 224
334 335 339 339 344 344 347 348 345 351 349 349 352 5 359 14 139 162 160 154 176 175 170 179 175 181 180 188 201 202 215 202 218 214 204 214 220 228 235 234 247 243 240 240 232
332 336 339 343 345 343 351 353 349 353 353 355 356 43 27 44 122 143 156 164 159 158 160 173 184 196 196 188 206 212 211 215 209 212 210 217 220 222 223 228 232 236 239 240 235
330 335 340 348 345 343 351 353 355 357 359 358 23 67 75 112 120 125 166 171 168 158 156 158 169 177 182 193 194 201 205 191 220 218 218 214 221 236 245 242 252 233 233 234 235
328 334 342 348 347 346 353 357 3 3 1 11 36 57 138 132 97 129 169 171 171 166 145 150 161 164 172 191 200 208 211 211 219 218 223 226 229 228 233 232 248 249 237 231 232
327 336 347 351 347 348 352 360 8 6 8 21 68 100 134 123 138 112 161 170 169 162 150 158 166 169 183 182 195 204 209 204 209 214 220 227 230 232 242 241 242 251 260 265 239
325 340 357 352 349 350 351 1 9 12 9 53 95 136 122 146 153 102 155 164 164 163 167 170 156 171 174 186 192 198 207 207 211 219 217 219 230 232 240 249 249 248 255 249 249
322 347 2 354 351 351 354 3 17 17 15 80 109 129 167 166 174 139 147 161 162 158 165 181 196 196 191 182 181 181 194 207 216 220 224 226 232 235 239 249 257 256 253 252 251
323 3 3 360 353 352 356 2 16 20 25 48 145 127 104 162 165 181 156 165 171 156 168 166 163 183 192 194 200 204 204 204 207 211 219 230 234 235 230 246 259 259 257 256 253
322 12 9 3 354 352 357 2 14 23 35 42 165 131 137 138 161 174 190 175 178 188 178 179 190 189 190 192 196 207 211 215 211 213 213 221 244 240 244 246 254 258 261 261 256
316 14 12 13 0 351 358 3 14 38 51 64 165 168 149 145 142 154 164 170 183 192 194 193 206 201 191 207 212 216 208 208 216 219 220 227 241 240 234 243 247 254 262 269 268
261 31 13 14 355 352 1 9 6 23 53 81 174 191 178 160 158 146 153 161 165 181 199 205 211 204 214 210 207 217 227 226 229 229 225 228 237 248 245 246 252 253 255 268 271
180 45 19 25 6 357 0 12 6 347 108 87 100 192 217 206 183 164 175 172 176 184 195 194 200 206 219 230 230 229 226 223 227 231 231 232 237 247 256 255 256 261 266 268 271
176 85 27 30 9 6 359 9 7 356 260 221 186 169 186 208 202 184 181 184 183 186 190 203 209 214 229 227 220 220 223 225 232 237 239 240 242 249 260 263 265 271 274 271 269
169 154 49 27 19 9 0 9 8 2 305 239 230 195 187 188 207 206 193 201 200 201 203 206 213 225 225 227 230 235 238 242 241 246 250 247 253 254 259 271 276 271 270 275 277
172 181 63 11 34 18 9 11 6 12 350 251 235 229 215 202 194 210 217 220 219 225 232 232 236 240 242 245 245 246 252 259 267 267 269 272 270 272 276 277 272 272 274 271 270